Track STARLINK-1688 now! 10-day predictions STARLINK-1688 is classified as:
1 46371U 20062AY 22177.67570066 .00000108 00000-0 26130-4 0 9992 2 46371 53.0569 306.0403 0001553 67.2273 292.8880 15.06389741100998